Regional Weather Roundup
Issued by NWS

Home | Current Version | Previous Version | Graphics & Text | Print | Product List | Glossary Off
Versions: 1 2 3 4 5 6 7 8 9 10 11 12 13 14 15 16 17 18 19 20 21 22 23 24 25 26 27 28 29 30 31 32 33 34 35 36 37 38 39 40 41 42 43 44 45 46 47 48 49

000
ASUS43 KDMX 220807
RWRIA

WEATHER ROUNDUP FOR IOWA
NATIONAL WEATHER SERVICE DES MOINES IA
200 AM CST SAT NOV 22 2014

NOTE: "FAIR" INDICATES FEW OR NO CLOUDS BELOW 12,000 FEET WITH NO
SIGNIFICANT WEATHER AND/OR OBSTRUCTIONS TO VISIBILITY.

* - THESE STATIONS ARE NOT NWS STATIONS...THUS NOT UNDER NWS
QUALITY CONTROL.  THEY ALSO DO NOT REPORT WEATHER SUCH
AS PRECIPITATION OR FOG.

IAZ001>003-012>014-020>022-031>034-043>046-220900-
   NORTHWEST IOWA

CITY           SKY/WX    TMP DP  RH WIND       PRES   REMARKS
CARROLL *      CLOUDY    36  36 100 S9        29.94F WCI  29
CHEROKEE *     CLOUDY    36  36 100 S13       29.89F FOG     WCI  27
DENISON *      FOG       36  36 100 SW10G16   29.91F VSB 1/2 WCI  28
LE MARS *      CLOUDY    36  34  93 S12       29.88F FOG     WCI  27
ORANGE CITY *  CLOUDY    36  34  93 S13       29.85F FOG     WCI  27
SHELDON *      CLOUDY    34  34 100 S14G20    29.85S FOG     WCI  24
SIOUX CITY     CLOUDY    38  35  89 S8        29.91F FOG     WCI  32
SPENCER        CLOUDY    35  33  92 S10       29.87F FOG     WCI  27
STORM LAKE *   FOG       34  34 100 SW16      29.90F VSB 1/4 WCI  23
$$

IAZ055>058-069>071-079>083-090>094-220900-
   SOUTHWEST IOWA

CITY           SKY/WX    TMP DP  RH WIND       PRES   REMARKS
ATLANTIC *     CLOUDY    36  36 100 SW7       29.96S FOG     WCI  30
AUDUBON *      HAZE      36  30  80 SW6       29.96S VSB 3/4 WCI  31
CLARINDA *     FOG       37  37 100 S8        29.99F VSB 1/2 WCI  31
COUNCIL BLFS * FOG       36  36 100 S9        29.94F VSB 3/4 WCI  29
CRESTON *      FOG       36  36 100 S13       29.98S VSB 1/2 WCI  27
HARLAN  *      FOG       36  36 100 S7        29.99S VSB 1   WCI  30
LAMONI         CLOUDY    38  36  92 S9        29.99F WCI  31
RED OAK *      CLOUDY    37  37 100 S6        29.97F FOG     WCI  33
SHENANDOAH *   CLOUDY    37  37 100 S8        29.98F FOG     WCI  31
$$

IAZ047>049-059>061-072>074-084-220900-
   CENTRAL IOWA

CITY           SKY/WX    TMP DP  RH WIND       PRES   REMARKS
AMES           CLOUDY    36  31  82 S7        29.98S WCI  30
ANKENY *       CLOUDY    39  34  81 S7G13     29.99R WCI  34
CHARITON *     CLOUDY    39  37  93 S12       29.99F WCI  32
DES MOINES     CLOUDY    40  33  76 S13       29.98F WCI  32
GRINNELL*      CLOUDY    36  32  87 S10       30.00S WCI  28
KNOXVILLE *    CLOUDY    37  34  87 S8        29.98F WCI  31
MARSHALLTOWN   CLOUDY    35  30  82 S8        29.97F WCI  29
PELLA *        CLOUDY    37  34  87 S8        30.01F WCI  31
PERRY *        CLOUDY    37  36  93 SW5       29.97S FOG     WCI  34
$$

IAZ004>006-015-016-023>025-035-036-220900-
   NORTH CENTRAL IOWA

CITY           SKY/WX    TMP DP  RH WIND       PRES   REMARKS
ALGONA *       FOG       34  34 100 S16G23    29.89F VSB 1/2 WCI  23
CLARION *      CLOUDY    34  34 100 S14       29.93F FOG     WCI  24
ESTHERVILLE    CLOUDY    34  34 100 SW16      29.86F FOG     WCI  24
FORT DODGE *   CLOUDY    34  32  93 S8        29.94F WCI  27
MASON CITY     CLOUDY    33  32  96 S12       29.94F FOG     WCI  24
FOREST CITY *  CLOUDY    34  34 100 S13       29.91F FOG     WCI  25
IOWA FALLS *   CLOUDY    34  32  93 S9        29.97S WCI  26
$$

IAZ007>011-017>019-026>030-037>042-050>054-066-220900-
   NORTHEAST IOWA

CITY           SKY/WX    TMP DP  RH WIND       PRES   REMARKS
CEDAR RAPIDS   CLOUDY    32  31  96 S8        30.02F FOG     WCI  25
CHARLES CITY * CLOUDY    32  30  93 S14       29.96F FOG     WCI  22
CLINTON *      CLOUDY    34  30  86 S6        30.10F WCI  29
DECORAH *      CLOUDY    32  28  86 S12G20    29.96F FOG     WCI  23
DUBUQUE        CLOUDY    31  29  92 S16       30.02F WCI  20
MONTICELLO *   CLOUDY    32  32 100 S12       30.03F WCI  23
OELWEIN *      CLOUDY    32  28  86 S15       29.99F WCI  22
WATERLOO       CLOUDY    34  30  85 S7        29.99F WCI  28
$$

IAZ064-065-067-068-078-220900-
   EAST CENTRAL IOWA

CITY           SKY/WX    TMP DP  RH WIND       PRES   REMARKS
DAVENPORT      LGT RAIN  34  30  85 S9        30.07F FOG     WCI  27
IOWA CITY      CLOUDY    33  32  96 SE5       30.06F FOG     WCI  29
MT. PLEASANT * CLOUDY    36  32  87 S14       30.05F WCI  27
MUSCATINE *    MIX PCPN  36  34  93 SE3       30.07S
QUAD CITIES    CLOUDY    35  31  85 S5        30.06F WCI  31
$$

IAZ062-063-075>077-085>089-095>099-220900-
   SOUTHEAST IOWA

CITY           SKY/WX    TMP DP  RH WIND       PRES   REMARKS
BURLINGTON     CLOUDY    39  32  76 S14       30.06F WCI  31
FAIRFIELD *    CLOUDY    36  32  87 S9        30.03F WCI  29
FORT MADISON * CLOUDY    39  34  81 S12       30.07F WCI  32
KEOKUK *       CLOUDY    41  34  75 S9        30.06F
OSKALOOSA *    CLOUDY    34  32  93 S6        30.02S FOG     WCI  29
CENTERVILLE *  CLOUDY    39  39 100 S7        30.03S WCI  34
OTTUMWA        CLOUDY    36  32  85 S10       30.02S WCI  28
WASHINGTON *   CLOUDY    36  36 100 S8        30.04F FOG     WCI  29
$$

ABBREVIATIONS USED IN REMARKS
   TC - TEMPERATURES IN CELSIUS
  WCI - WIND CHILL INDEX
   HX - HEAT INDEX
  VSB - VISIBILITY
$$




USA.gov is the U.S. government's official web portal to all federal, state and local government web resources and services.